Regional Weather Roundup
Issued by NWS

Home | Current Version | Previous Version | Text Only | Print | Product List | Glossary On
Versions: 1 2 3 4 5 6 7 8 9 10 11 12 13 14 15 16 17 18 19 20 21 22 23 24 25 26 27 28 29 30 31 32 33 34 35 36 37 38 39 40 41 42 43 44 45 46 47 48 49 50
000
ASUS45 KTFX 180410
RWRMT
MONTANA REGIONAL WEATHER ROUNDUP
NATIONAL WEATHER SERVICE GREAT FALLS MT
900 PM MST SUN DEC 17 2017

NOTE: "FAIR" INDICATES FEW OR NO CLOUDS BELOW 12000 FEET WITH NO
SIGNIFICANT WEATHER AND/OR OBSTRUCTIONS TO VISIBILITY.

MTZ001>007-043-180500-
WEST OF THE DIVIDE

CITY           SKY/WX    TMP DP  RH WIND       PRES   REMARKS
KALISPELL      CLOUDY    33  28  81 S8        29.89F WCI  26
MISSOULA       CLOUDY    26  21  81 CALM      30.00F
BUTTE          CLOUDY    25  19  78 N3        29.96F
MULLAN PASS    LGT SNOW  26  22  84 VRB5      29.85F VSB 1
ANACONDA         N/A     32  19  59 S20G26    29.94F WCI  20
DEER LODGE       N/A     30  23  74 S9G16     29.94F WCI  22
EUREKA           N/A     34  28  80 MISG      29.85F
HAMILTON         N/A     34  21  60 S14       29.98F WCI  24
LIBBY            N/A     28  27  93 CALM      29.87S
PLAINS           N/A     32  25  76 CALM      29.95
RONAN            N/A     34  29  82 SE6       29.97F WCI  29
$$

MTZ008-052>055-180500-
SOUTHWEST MONTANA

CITY           SKY/WX    TMP DP  RH WIND       PRES   REMARKS
BOZEMAN        MOCLDY    23  18  81 S9        29.99F WCI  13
DILLON         CLOUDY    25  18  74 SW17      30.02F WCI  12
W YELLOWSTONE  CLOUDY    16  14  93 SW12G17   30.13R WCI   3
ENNIS          CLOUDY    25  16  68 S24G35    30.07F WCI   9
THREE FORKS      N/A     31  22  69 W24       29.97F WCI  18
TWIN BRIDGES     N/A     28  15  58 SE1       30.02
$$

MTZ009-010-012-014-046-048-049-054-180500-
EAST SLOPES AND CENTRAL MONTANA

CITY           SKY/WX    TMP DP  RH WIND       PRES   REMARKS
CUT BANK       FAIR      34  24  67 SW21G30   29.70F WCI  22
GREAT FALLS    FAIR      36  22  56 SW31G45   29.78S WCI  23
MALMSTROM AFB  MOCLDY    37  24  57 SW32G47   29.78F WCI  24
HELENA         FAIR      27  21  78 NW5       29.94F
BOWMANS CRNR   MOCLDY    31  22  67 SW36G45   29.76F WCI  15
CHOTEAU          N/A     34  21  60 S9G18     29.74F WCI  26
FAIRFIELD      MOCLDY    33  20  59 S29G35    29.74F WCI  20
POWER          MOCLDY    34  22  61 SW28      29.75F WCI  20
RAYNESFORD     MOCLDY    40  22  49 SW31G37   29.75F
ULM            MOCLDY    38  23  56 SW21G30   29.82F WCI  27
$$

MTZ011-013-016-021-045-047-050-051-180500-
NORTH CENTRAL MONTANA

CITY           SKY/WX    TMP DP  RH WIND       PRES   REMARKS
HAVRE          FAIR      38  24  57 SW25G32   29.70F WCI  27
LEWISTOWN      FAIR      34  23  64 SW17      29.76F WCI  23
N BAR RANCH    FAIR      32  18  55 W6        29.77F WCI  26
CHINOOK          N/A     39  23  52 SW21G30   29.67F WCI  29
DENTON         MOCLDY    38  22  51 MISG      29.71F
GEYSER         MOCLDY    38  23  53 W21G30    29.74F WCI  28
GRASS RANGE    MOCLDY    36  21  55 W20       29.71F WCI  25
STANFORD       MOCLDY    37  25  63 W24G36    29.72F WCI  25
WINIFRED       FAIR      35  21  57 W12       29.74F WCI  26
$$

MTZ017>020-022>027-061-062-180500-
NORTHEAST MONTANA

CITY           SKY/WX    TMP DP  RH WIND       PRES   REMARKS
GLASGOW        FAIR      34  22  61 W7        29.68F WCI  28
GLENDIVE       CLOUDY    36  20  52 W12       29.73F WCI  28
JORDAN           N/A     35  21  56 W5        29.73F
SIDNEY         MOCLDY    32  22  66 SW8       29.71F WCI  25
WOLF POINT     CLOUDY    33  25  72 SW3       29.69F
MALTA          CLEAR     30  21  69 W6        29.70S WCI  24
PLENTYWOOD       N/A     34  27  75 W10       29.63F WCI  26
POPLAR           N/A     32  23  69 SW6       29.69F WCI  26
SCOBEY           N/A     33  21  61 CALM      29.65F
$$

MTZ028>42-056>058-180500-
SOUTHCENTRAL AND SOUTHEAST MONTANA

CITY           SKY/WX    TMP DP  RH WIND       PRES   REMARKS
BAKER          FAIR      33  22  63 W14       29.77S WCI  23
BILLINGS       FAIR      30  23  75 SW15      29.84F WCI  19
LIVINGSTON     LGT SNOW  29  22  75 SW41G56   29.90S WCI  11
MILES CITY     CLOUDY    37  22  54 W14       29.78F WCI  28
BIG TIMBER     PTCLDY    32  21  64 W39G47    29.88F WCI  16
EKALAKA          N/A     29  18  63 SW13      29.78S WCI  19
FORSYTH          N/A     37  21  52 SW12G20   29.79F WCI  30
HARLOWTON      MOCLDY    32  23  70 W35G43    29.80F WCI  16
LAUREL           N/A     28  23  80 W20       29.86F WCI  15
$$

REGIONAL REPORTS...DAKOTAS

CITY           SKY/WX    TMP DP  RH WIND       PRES   REMARKS
WILLISTON      FAIR      32  21  64 SW7       29.67F WCI  26
MINOT          MOCLDY    35  22  58 SW13      29.64F WCI  26
DICKINSON      CLOUDY    34  20  56 W14       29.70F WCI  25
BEACH          FAIR      32  19  59 W14       29.76F WCI  22
CROSBY         FAIR      30  27  86 SW10      29.63S WCI  21
TIOGA          FAIR      30  23  74 W14       29.65F WCI  20
BISMARCK       CLOUDY    36  24  62 SW9       29.75F WCI  29
GRAND FORKS    MOCLDY    23  22  96 S12       29.76F WCI  12
FARGO          CLOUDY    31  31 100 S12       29.83F FOG     WCI  22
BUFFALO SD       N/A     30  21  69 W15       29.72F WCI  19
RAPID CITY     FAIR      25  17  72 NW7       29.86R WCI  17
$$

REGIONAL REPORTS...WYOMING/IDAHO/WASHINGTON

CITY           SKY/WX    TMP DP  RH WIND       PRES   REMARKS
GILLETTE       FAIR      26  15  63 SW13      29.87S WCI  15
SHERIDAN       FAIR      15  13  91 N5        29.86S
BUFFALO WY     FAIR      26  13  57 SW7       29.86R WCI  18
CODY           MOCLDY    35  18  49 NW10G16   29.91R WCI  27
YELLOWSTONE LA   N/A     13  11  92 CALM      30.10F
IDAHO FALLS    CLOUDY    21  19  92 CALM      30.25R
SALMON         CLOUDY    23  15  71 CALM      30.17
BOISE          CLOUDY    35  23  61 E7        30.24S WCI  29
SPOKANE        CLOUDY    34  33  96 S12       29.92F WCI  25
$$

REGIONAL REPORTS...ALBERTA

CITY           SKY/WX    TMP DP  RH WIND       PRES   REMARKS
EDMONTON       CLEAR     30  16  55 W6        29.51F WCI  24
CALGARY        MOCLDY    37  16  41 NW10      29.54F WCI  30
LETHBRIDGE     MOCLDY    32  21  64 S6        29.65F WCI  26
MEDICINE HAT   CLOUDY    39  25  56 SW13G21   29.60F WCI  32
$$

REGIONAL REPORTS...SASKATCHEWAN

CITY           SKY/WX    TMP DP  RH WIND       PRES   REMARKS
SWIFT CURRENT  CLOUDY    30  23  74 W15       29.57F WCI  19
REGINA         MOCLDY    32  27  80 SW14      29.53F WCI  22
SASKATOON      PTCLDY    28  23  80 SW12      29.48S WCI  18
$$



USA.gov is the U.S. government's official web portal to all federal, state and local government web resources and services.